Flag Weather past 2 weeks in Słupsk, Poland

Now
36 °F

Fog.


Feels Like: 36 °F
Forecast: 45 / 54 °F
Wind: 2 mph from Southwest

Location: Leba

Current Time: Oct 31, 2014 at 5:25:19 AM

Latest Report: Oct 31, 2014 at 4:00 AM


Visibility: 0 mi

Pressure: 30.30 "Hg

Humidity: 100%

Dew point: 36 °F

Location of SłupskLocation

Historic Weather in Słupsk — Graph

°F

Słupsk temperature yesterday

Maximum temperature yesterday: 52 °F (at 1:00 PM)
Minimum temperature yesterday: 38 °F (at 10:00 PM)
Average temperature yesterday: 45 °F

Past Weeks' High & Low Weather Summary

 TemperatureHumidityPressure
High68 °F (Oct 19, 3:00 PM)100% (Oct 30, 11:00 PM)30.34 "Hg (Oct 30, 11:00 PM)
Low33 °F (Oct 25, 8:00 AM)48% (Oct 29, 12:00 PM)29.54 "Hg (Oct 22, 12:00 AM)
Average48 °F85%30.04 "Hg
* Reported Oct 16 5:00 AM — Oct 31 4:00 AM, Słupsk, Weather by CustomWeather, © 2014

Note: Actual official high and low records may vary slightly from our data, if they occured in-between our weather recording intervals... More about our weather records

Advertising

Słupsk weather history for previous 24 hours

 ConditionsComfort  
Time TempWeatherWind HumidityBarometerVisibility
4:00 AM
Oct 31
36 °FFog.2 mph100%30.30 "Hg1 mi
3:00 AM36 °FFog.7 mph100%30.31 "Hg1 mi
2:00 AM36 °FFog.7 mph100%30.31 "Hg1 mi
1:00 AM36 °FFog.3 mph99%30.32 "Hg0 mi
12:00 AM37 °FFog.3 mph99%30.31 "Hg1 mi
11:00 PM
Oct 30
40 °FFog.2 mph100%30.30 "Hg5 mi
10:00 PM38 °FFog.2 mph98%30.30 "Hg0 mi
9:00 PM40 °FFog.1 mph97%30.30 "Hg6 mi
8:00 PM43 °FOvercast.1 mph96%30.30 "Hg9 mi
7:00 PM45 °FOvercast.1 mph95%30.29 "Hg12 mi
6:00 PM46 °FOvercast.2 mph93%30.28 "Hg12 mi
5:00 PM48 °FOvercast.2 mph81%30.27 "Hg12 mi
4:00 PM49 °FOvercast.2 mph78%30.25 "Hg12 mi
3:00 PM51 °FOvercast.2 mph75%30.25 "Hg12 mi
2:00 PM52 °FOvercast.3 mph74%30.24 "Hg12 mi
1:00 PM52 °FOvercast.3 mph73%30.23 "Hg12 mi
12:00 PM51 °FOvercast.3 mph82%30.22 "Hg12 mi
11:00 AM47 °FFog.2 mph99%30.21 "Hg6 mi
10:00 AM44 °FFog.1 mph99%30.20 "Hg0 mi
9:00 AM42 °FFog.2 mph99%30.19 "Hg0 mi
8:00 AM42 °FFog.3 mph98%30.17 "Hg1 mi
7:00 AM43 °FFog.2 mph98%30.16 "Hg1 mi
6:00 AM44 °FFog.5 mph98%30.14 "Hg2 mi
5:00 AM44 °FLow clouds.3 mph98%30.12 "Hg2 mi
Weather by CustomWeather, © 2014

See weather overviewHow to use our weather pages